FW9305 Weather Reports


time (UTC)temp
F
wind
direction
speed
knots
gust
knots
rain 1hr
in
rain 24hr
in
rain mn
in
humidity
%
barometer
mb
20260505181553 77 226 1.7 12.2 0.00 0.00 0.00 82 1005.9
20260505180058 77 213 2.6 11.3 0.00 0.00 0.00 82 1006.2
20260505174608 77 216 0.9 7.8 0.00 0.00 0.00 82 1006.3
20260505173049 76 211 0.9 7.0 0.00 0.00 0.00 84 1006.3
20260505171547 76 226 0.9 7.8 0.00 0.00 0.00 84 1006.5
20260505170110 75 220 0.0 6.1 0.00 0.00 0.00 86 1006.4
20260505164543 74 224 0.9 12.2 0.00 0.00 0.00 86 1006.6
20260505163044 74 245 1.7 8.7 0.00 0.00 0.00 87 1006.6
20260505161536 74 232 0.0 8.7 0.00 0.00 0.00 88 1006.6
20260505153031 73 254 0.0 11.3 0.00 0.00 0.00 88 1006.6
20260505151526 72 221 0.9 7.0 0.00 0.00 0.00 88 1006.5
20260505124507 71 223 0.9 8.7 0.00 0.00 0.00 87 1005.6
20260505123003 71 225 0.0 9.6 0.00 0.00 0.00 87 1005.4
20260505121502 70 210 0.0 7.8 0.00 0.00 0.00 87 1005.2
20260505120003 70 212 0.9 5.2 0.00 0.00 0.00 87 1005.2
20260505114501 70 212 0.9 5.2 0.00 0.00 0.00 87 1005.2
20260505113100 70 214 0.0 7.8 0.00 0.00 0.00 88 1005.1
20260505111609 70 219 0.9 8.7 0.00 0.00 0.00 88 1005.0
20260505101554 70 216 1.7 10.4 0.00 0.00 0.00 88 1005.5
20260505100055 70 218 1.7 11.3 0.00 0.00 0.00 87 1005.2
20260505094554 70 201 0.9 13.0 0.00 0.00 0.00 87 1005.3
20260505093054 70 226 0.9 13.0 0.00 0.00 0.00 88 1005.0
20260505091551 70 214 0.9 9.6 0.00 0.00 0.00 88 1005.1
20260505090054 70 188 0.0 6.1 0.00 0.00 0.00 87 1005.2
20260505084551 70 200 0.9 7.8 0.00 0.00 0.00 87 1005.3
20260505083100 70 207 0.9 5.2 0.00 0.00 0.00 87 1005.7
20260505081548 70 216 0.9 7.8 0.00 0.00 0.00 86 1006.0
20260505080043 70 189 0.9 7.8 0.00 0.00 0.00 86 1006.1
20260505074545 70 209 1.7 7.8 0.00 0.00 0.00 85 1005.9
20260505073039 70 208 0.9 7.0 0.00 0.00 0.00 85 1006.5
20260505071540 70 205 0.9 7.8 0.00 0.00 0.00 85 1006.7
20260505070045 70 211 0.0 6.1 0.00 0.00 0.00 85 1006.9
20260505064551 70 206 0.9 7.0 0.00 0.00 0.00 85 1007.1
20260505064504 70 205 0.9 7.0 0.00 0.00 0.00 85 1007.1
20260505063034 70 209 0.9 7.0 0.00 0.00 0.00 85 1007.2
20260505061540 70 197 0.0 7.0 0.00 0.00 0.00 85 1007.2
20260505060032 0 0.0 0.0 0.00 0.00 0.00 1007.3
20260505054527 71 209 0.0 4.3 0.00 0.00 0.00 83 1007.3
20260505053026 71 202 0.0 4.3 0.00 0.00 0.00 83 1007.6
20260505051524 71 203 0.9 6.1 0.00 0.00 0.00 82 1007.4
20260505041529 72 199 0.0 3.5 0.00 0.00 0.00 80 1007.1
20260505040020 72 192 0.0 2.6 0.00 0.00 0.00 80 1007.2
20260505034518 73 172 0.0 3.5 0.00 0.00 0.00 79 1007.3
20260505033019 73 196 0.0 7.0 0.00 0.00 0.00 78 1007.3
20260505031518 73 184 0.0 6.1 0.00 0.00 0.00 77 1007.2
20260505030017 73 189 0.0 4.3 0.00 0.00 0.00 76 1007.2
20260505024534 74 181 0.0 5.2 0.00 0.00 0.00 75 1007.1
20260505023016 74 200 0.0 2.6 0.00 0.00 0.00 74 1006.8
20260505021518 74 204 0.9 6.1 0.00 0.00 0.00 74 1006.9
20260505020015 74 202 0.0 2.6 0.00 0.00 0.00 74 1006.7
20260505014513 74 206 0.0 1.7 0.00 0.00 0.00 73 1006.5
20260505013020 75 209 0.0 0.9 0.00 0.00 0.00 72 1006.6
20260505011512 75 209 0.0 0.9 0.00 0.00 0.00 71 1006.6
20260505010012 76 211 0.0 0.9 0.00 0.00 0.00 70 1006.7
20260505004515 77 211 0.0 1.7 0.00 0.00 0.00 68 1006.6
20260505003014 77 210 0.0 3.5 0.00 0.00 0.00 67 1006.6
20260505001514 77 219 0.0 7.0 0.00 0.00 0.00 66 1006.7
20260505000025 78 174 0.0 5.2 0.00 0.00 0.00 64 1006.7
20260504234508 79 208 0.9 6.1 0.00 0.00 0.00 64 1007.0
20260504233004 79 215 0.0 5.2 0.00 0.00 0.00 64 1007.3
20260504231510 79 169 0.9 8.7 0.00 0.00 0.00 62 1007.5
20260504230001 79 232 0.0 6.1 0.00 0.00 0.00 63 1007.7
20260504224603 79 223 0.9 7.8 0.00 0.00 0.00 63 1007.6
20260504223058 79 207 0.9 9.6 0.00 0.00 0.00 62 1007.8
20260504221605 79 209 0.0 9.6 0.00 0.00 0.00 62 1008.0
20260504220056 79 207 0.0 10.4 0.00 0.00 0.00 61 1008.0
20260504214555 79 213 1.7 10.4 0.00 0.00 0.00 60 1008.1
20260504213054 79 169 0.0 7.0 0.00 0.00 0.00 62 1008.4
20260504211553 79 213 1.7 10.4 0.00 0.00 0.00 61 1008.7
20260504210106 80 208 0.9 16.5 0.00 0.00 0.00 57 1009.0
20260504204558 80 199 2.6 10.4 0.00 0.00 0.00 58 1009.1
20260504203048 81 225 0.9 7.0 0.00 0.00 0.00 58 1009.6
20260504201547 80 218 2.6 8.7 0.00 0.00 0.00 58 1010.0
20260504200039 79 225 0.9 10.4 0.00 0.00 0.00 59 1010.2
20260504194558 79 206 2.6 13.0 0.00 0.00 0.00 59 1010.4
20260504193034 79 211 0.9 9.6 0.00 0.00 0.00 61 1010.6
20260504191541 78 223 0.9 12.2 0.00 0.00 0.00 60 1011.0
20260504190033 78 211 1.7 9.6 0.00 0.00 0.00 59 1011.1
20260504184537 78 224 1.7 9.6 0.00 0.00 0.00 58 1011.2
20260504183027 78 205 1.7 15.6 0.00 0.00 0.00 58 1011.4